| time (UTC) | temp F | wind direction | speed MPH | gust MPH | rain 1hr in | rain 24hr in | rain mn in | humidity % | barometer mb |
| 20260510174515 | 55 | 37 | 10.0 | 19.0 | 0.00 | 0.00 | 0.00 | 71 | 1014.7 |
| 20260510173515 | 55 | 35 | 10.0 | 21.0 | 0.00 | 0.00 | 0.00 | 71 | 1014.8 |
| 20260510172535 | 56 | 39 | 12.0 | 23.0 | 0.00 | 0.00 | 0.00 | 70 | 1014.8 |
| 20260510171515 | 56 | 40 | 10.0 | 17.0 | 0.00 | 0.00 | 0.00 | 71 | 1014.9 |
| 20260510170515 | 57 | 39 | 9.0 | 21.0 | 0.00 | 0.00 | 0.00 | 71 | 1014.9 |
| 20260510165515 | 57 | 37 | 10.0 | 18.0 | 0.00 | 0.02 | 0.00 | 70 | 1014.9 |
| 20260510164535 | 58 | 40 | 9.0 | 18.0 | 0.00 | 0.02 | 0.00 | 69 | 1014.8 |
| 20260510163515 | 58 | 45 | 8.0 | 17.0 | 0.00 | 0.02 | 0.00 | 69 | 1014.8 |
| 20260510162517 | 58 | 39 | 10.0 | 19.0 | 0.00 | 0.02 | 0.00 | 69 | 1014.8 |
| 20260510161517 | 58 | 35 | 10.0 | 17.0 | 0.00 | 0.02 | 0.00 | 69 | 1014.8 |
| 20260510160517 | 59 | 42 | 9.0 | 19.0 | 0.00 | 0.02 | 0.00 | 67 | 1014.8 |
| 20260510155535 | 60 | 39 | 9.0 | 16.0 | 0.00 | 0.02 | 0.00 | 67 | 1014.9 |
| 20260510154557 | 60 | 33 | 8.0 | 18.0 | 0.00 | 0.02 | 0.00 | 67 | 1015.0 |
| 20260510153517 | 61 | 41 | 8.0 | 18.0 | 0.00 | 0.02 | 0.00 | 68 | 1014.9 |
| 20260510152517 | 60 | 41 | 7.0 | 19.0 | 0.00 | 0.02 | 0.00 | 68 | 1015.0 |
| 20260510151517 | 60 | 37 | 8.0 | 20.0 | 0.00 | 0.02 | 0.00 | 67 | 1015.0 |
| 20260510150537 | 61 | 38 | 10.0 | 16.0 | 0.00 | 0.02 | 0.00 | 65 | 1015.2 |
| 20260510145516 | 61 | 40 | 8.0 | 21.0 | 0.00 | 0.02 | 0.00 | 66 | 1015.1 |
| 20260510144517 | 61 | 39 | 8.0 | 19.0 | 0.00 | 0.02 | 0.00 | 66 | 1015.2 |
| 20260510143517 | 61 | 39 | 7.0 | 16.0 | 0.00 | 0.02 | 0.00 | 66 | 1015.3 |
| 20260510142517 | 61 | 52 | 8.0 | 18.0 | 0.00 | 0.02 | 0.00 | 66 | 1015.4 |
| 20260510141557 | 61 | 66 | 8.0 | 20.0 | 0.00 | 0.02 | 0.00 | 67 | 1015.4 |
| 20260510140537 | 61 | 42 | 9.0 | 20.0 | 0.00 | 0.02 | 0.00 | 66 | 1015.4 |
| 20260510135537 | 62 | 57 | 9.0 | 19.0 | 0.00 | 0.02 | 0.00 | 66 | 1015.5 |
| 20260510134537 | 61 | 77 | 6.0 | 17.0 | 0.00 | 0.02 | 0.00 | 68 | 1015.6 |
| 20260510133517 | 63 | 42 | 9.0 | 18.0 | 0.00 | 0.02 | 0.00 | 63 | 1015.5 |
| 20260510132516 | 63 | 53 | 7.0 | 16.0 | 0.00 | 0.02 | 0.00 | 62 | 1015.5 |
| 20260510131617 | 64 | 48 | 9.0 | 18.0 | 0.00 | 0.02 | 0.00 | 61 | 1015.5 |
| 20260510130516 | 64 | 78 | 8.0 | 15.0 | 0.00 | 0.02 | 0.00 | 58 | 1015.5 |
| 20260510125516 | 63 | 70 | 6.0 | 19.0 | 0.00 | 0.02 | 0.00 | 58 | 1015.5 |
| 20260510124536 | 63 | 58 | 7.0 | 19.0 | 0.00 | 0.02 | 0.00 | 59 | 1015.6 |
| 20260510123516 | 64 | 78 | 6.0 | 16.0 | 0.00 | 0.02 | 0.00 | 59 | 1015.8 |
| 20260510122517 | 63 | 90 | 8.0 | 17.0 | 0.00 | 0.02 | 0.00 | 59 | 1015.9 |
| 20260510121517 | 63 | 87 | 7.0 | 21.0 | 0.00 | 0.02 | 0.00 | 60 | 1015.9 |
| 20260510120557 | 62 | 49 | 8.0 | 18.0 | 0.00 | 0.02 | 0.00 | 59 | 1015.8 |
| 20260510115516 | 63 | 77 | 6.0 | 14.0 | 0.00 | 0.02 | 0.00 | 61 | 1015.9 |
| 20260510114516 | 63 | 54 | 6.0 | 14.0 | 0.00 | 0.02 | 0.00 | 60 | 1015.9 |
| 20260510113516 | 63 | 90 | 5.0 | 15.0 | 0.00 | 0.02 | 0.00 | 60 | 1016.0 |
| 20260510112516 | 62 | 96 | 7.0 | 17.0 | 0.00 | 0.02 | 0.00 | 61 | 1015.9 |
| 20260510111516 | 62 | 70 | 7.0 | 18.0 | 0.00 | 0.02 | 0.00 | 61 | 1016.1 |
| 20260510110516 | 61 | 62 | 6.0 | 18.0 | 0.00 | 0.02 | 0.00 | 62 | 1016.1 |
| 20260510105516 | 62 | 61 | 5.0 | 15.0 | 0.00 | 0.02 | 0.00 | 64 | 1016.1 |
| 20260510104516 | 61 | 83 | 5.0 | 15.0 | 0.00 | 0.02 | 0.00 | 64 | 1016.3 |
| 20260510103537 | 60 | 86 | 6.0 | 14.0 | 0.00 | 0.02 | 0.00 | 67 | 1016.3 |
| 20260510102516 | 59 | 93 | 7.0 | 17.0 | 0.00 | 0.02 | 0.00 | 67 | 1016.5 |
| 20260510101516 | 58 | 61 | 9.0 | 18.0 | 0.00 | 0.02 | 0.00 | 68 | 1016.5 |
| 20260510100517 | 56 | 68 | 7.0 | 16.0 | 0.00 | 0.02 | 0.00 | 69 | 1016.5 |
| 20260510095516 | 55 | 61 | 6.0 | 17.0 | 0.00 | 0.02 | 0.00 | 71 | 1016.5 |
| 20260510094516 | 55 | 85 | 5.0 | 14.0 | 0.00 | 0.02 | 0.00 | 74 | 1016.6 |
| 20260510093536 | 54 | 61 | 6.0 | 14.0 | 0.00 | 0.02 | 0.00 | 73 | 1016.7 |
| 20260510092516 | 54 | 61 | 6.0 | 17.0 | 0.00 | 0.02 | 0.00 | 73 | 1016.6 |
| 20260510091556 | 54 | 50 | 5.0 | 14.0 | 0.00 | 0.02 | 0.00 | 76 | 1016.7 |
| 20260510090516 | 53 | 76 | 5.0 | 15.0 | 0.00 | 0.02 | 0.00 | 77 | 1016.7 |
| 20260510085536 | 52 | 65 | 6.0 | 18.0 | 0.00 | 0.02 | 0.00 | 77 | 1016.7 |
| 20260510084521 | 52 | 62 | 6.0 | 15.0 | 0.00 | 0.02 | 0.00 | 78 | 1016.8 |
| 20260510083536 | 52 | 51 | 7.0 | 15.0 | 0.00 | 0.02 | 0.00 | 78 | 1016.8 |
| 20260510082515 | 51 | 50 | 5.0 | 13.0 | 0.00 | 0.02 | 0.00 | 79 | 1016.9 |
| 20260510081516 | 51 | 46 | 7.0 | 15.0 | 0.00 | 0.02 | 0.00 | 80 | 1016.9 |
| 20260510080516 | 50 | 43 | 8.0 | 16.0 | 0.00 | 0.02 | 0.00 | 80 | 1016.8 |
| 20260510075516 | 50 | 42 | 9.0 | 16.0 | 0.00 | 0.02 | 0.00 | 80 | 1016.8 |
| 20260510074516 | 50 | 50 | 7.0 | 16.0 | 0.00 | 0.02 | 0.00 | 79 | 1016.8 |
| 20260510073516 | 51 | 62 | 8.0 | 18.0 | 0.00 | 0.02 | 0.00 | 79 | 1016.8 |
| 20260510072535 | 51 | 44 | 8.0 | 18.0 | 0.00 | 0.02 | 0.00 | 78 | 1016.6 |
| 20260510071516 | 51 | 81 | 5.0 | 15.0 | 0.00 | 0.02 | 0.00 | 80 | 1016.7 |
| 20260510070516 | 50 | 69 | 6.0 | 14.0 | 0.00 | 0.02 | 0.00 | 80 | 1016.6 |
| 20260510065516 | 50 | 76 | 6.0 | 16.0 | 0.00 | 0.02 | 0.00 | 81 | 1016.4 |
| 20260510064516 | 49 | 44 | 8.0 | 18.0 | 0.00 | 0.02 | 0.00 | 81 | 1016.3 |
| 20260510063516 | 49 | 45 | 7.0 | 16.0 | 0.00 | 0.02 | 0.00 | 81 | 1016.2 |
| 20260510062515 | 49 | 39 | 7.0 | 14.0 | 0.00 | 0.02 | 0.00 | 82 | 1016.0 |
| 20260510061536 | 49 | 40 | 9.0 | 17.0 | 0.00 | 0.02 | 0.00 | 82 | 1015.9 |
| 20260510060516 | 48 | 40 | 8.0 | 15.0 | 0.00 | 0.02 | 0.00 | 82 | 1015.8 |
| 20260510055516 | 48 | 45 | 7.0 | 16.0 | 0.00 | 0.02 | 0.00 | 82 | 1015.7 |
| 20260510054516 | 48 | 38 | 7.0 | 13.0 | 0.00 | 0.02 | 0.00 | 81 | 1015.8 |
| 20260510053516 | 48 | 45 | 7.0 | 16.0 | 0.00 | 0.02 | 0.00 | 80 | 1015.6 |
| 20260510052515 | 48 | 44 | 7.0 | 13.0 | 0.00 | 0.02 | 0.00 | 80 | 1015.8 |
| 20260510051516 | 48 | 42 | 7.0 | 13.0 | 0.00 | 0.02 | 0.00 | 80 | 1015.8 |
| 20260510050516 | 49 | 42 | 9.0 | 15.0 | 0.00 | 0.02 | 0.00 | 79 | 1015.7 |
| 20260510045515 | 49 | 40 | 7.0 | 13.0 | 0.00 | 0.02 | 0.00 | 79 | 1015.7 |
| 20260510044516 | 49 | 40 | 7.0 | 13.0 | 0.00 | 0.02 | 0.00 | 79 | 1015.7 |
| 20260510043515 | 49 | 39 | 5.0 | 14.0 | 0.00 | 0.02 | 0.00 | 78 | 1015.7 |
| 20260510042516 | 50 | 45 | 6.0 | 13.0 | 0.00 | 0.02 | 0.00 | 78 | 1015.8 |
| 20260510041516 | 50 | 58 | 5.0 | 13.0 | 0.00 | 0.02 | 0.00 | 77 | 1015.8 |
| 20260510040515 | 51 | 57 | 4.0 | 9.0 | 0.00 | 0.02 | 0.00 | 78 | 1015.9 |
| 20260510035515 | 51 | 64 | 4.0 | 12.0 | 0.00 | 0.02 | 0.00 | 79 | 1016.0 |
| 20260510034515 | 51 | 44 | 5.0 | 11.0 | 0.00 | 0.02 | 0.00 | 80 | 1016.0 |
| 20260510033555 | 52 | 66 | 4.0 | 12.0 | 0.00 | 0.02 | 0.00 | 80 | 1016.1 |
| 20260510032515 | 52 | 45 | 7.0 | 16.0 | 0.00 | 0.02 | 0.00 | 80 | 1016.0 |
| 20260510031515 | 52 | 80 | 5.0 | 15.0 | 0.00 | 0.02 | 0.00 | 80 | 1016.0 |
| 20260510030536 | 53 | 82 | 5.0 | 12.0 | 0.00 | 0.02 | 0.00 | 81 | 1016.1 |
| 20260510025515 | 53 | 71 | 4.0 | 12.0 | 0.00 | 0.02 | 0.00 | 80 | 1016.2 |
| 20260510024516 | 53 | 69 | 4.0 | 11.0 | 0.00 | 0.02 | 0.00 | 80 | 1016.2 |
| 20260510023516 | 53 | 78 | 4.0 | 15.0 | 0.00 | 0.02 | 0.00 | 80 | 1016.2 |
| 20260510022515 | 53 | 64 | 3.0 | 9.0 | 0.00 | 0.02 | 0.00 | 81 | 1016.3 |
| 20260510021515 | 53 | 67 | 3.0 | 8.0 | 0.00 | 0.02 | 0.00 | 82 | 1016.4 |
| 20260510020515 | 53 | 59 | 3.0 | 9.0 | 0.00 | 0.02 | 0.00 | 82 | 1016.4 |
| 20260510015515 | 53 | 69 | 2.0 | 6.0 | 0.00 | 0.02 | 0.00 | 84 | 1016.4 |
| 20260510014515 | 53 | 67 | 3.0 | 7.0 | 0.00 | 0.02 | 0.00 | 84 | 1016.5 |
| 20260510013515 | 53 | 49 | 3.0 | 10.0 | 0.00 | 0.02 | 0.00 | 85 | 1016.5 |
| 20260510012515 | 53 | 54 | 3.0 | 9.0 | 0.00 | 0.02 | 0.00 | 85 | 1016.5 |
| 20260510011515 | 53 | 46 | 4.0 | 11.0 | 0.00 | 0.02 | 0.00 | 86 | 1016.6 |
| 20260510010515 | 53 | 46 | 4.0 | 10.0 | 0.00 | 0.02 | 0.00 | 87 | 1016.6 |
| 20260510005555 | 52 | 49 | 4.0 | 12.0 | 0.00 | 0.02 | 0.00 | 89 | 1016.6 |
| 20260510004515 | 52 | 47 | 5.0 | 10.0 | 0.00 | 0.02 | 0.00 | 90 | 1016.7 |
| 20260510003515 | 52 | 44 | 5.0 | 10.0 | 0.00 | 0.02 | 0.00 | 89 | 1016.6 |
| 20260510002514 | 53 | 48 | 6.0 | 10.0 | 0.00 | 0.02 | 0.00 | 89 | 1016.6 |
| 20260510001535 | 53 | 38 | 5.0 | 10.0 | 0.00 | 0.02 | 0.00 | 89 | 1016.9 |
| 20260510000515 | 53 | 37 | 6.0 | 10.0 | 0.00 | 0.02 | 0.00 | 90 | 1016.9 |
| 20260509235537 | 53 | 33 | 6.0 | 10.0 | 0.00 | 0.02 | 0.00 | 90 | 1017.0 |
| 20260509234517 | 53 | 33 | 6.0 | 11.0 | 0.00 | 0.02 | 0.00 | 90 | 1017.0 |
| 20260509233517 | 53 | 33 | 6.0 | 10.0 | 0.00 | 0.02 | 0.00 | 90 | 1017.1 |
| 20260509232557 | 53 | 32 | 5.0 | 10.0 | 0.00 | 0.02 | 0.00 | 90 | 1017.0 |
| 20260509231517 | 53 | 37 | 5.0 | 9.0 | 0.00 | 0.02 | 0.00 | 90 | 1017.0 |
| 20260509230517 | 53 | 33 | 6.0 | 10.0 | 0.00 | 0.02 | 0.00 | 90 | 1017.2 |
| 20260509225536 | 53 | 37 | 5.0 | 9.0 | 0.00 | 0.02 | 0.02 | 90 | 1017.2 |
| 20260509224516 | 53 | 33 | 4.0 | 9.0 | 0.00 | 0.02 | 0.02 | 90 | 1017.2 |
| 20260509223515 | 53 | 53 | 4.0 | 6.0 | 0.00 | 0.02 | 0.02 | 90 | 1017.2 |
| 20260509222535 | 53 | 53 | 3.0 | 7.0 | 0.00 | 0.02 | 0.02 | 90 | 1017.2 |
| 20260509221515 | 53 | 50 | 3.0 | 7.0 | 0.00 | 0.02 | 0.02 | 89 | 1017.2 |
| 20260509220556 | 53 | 46 | 5.0 | 10.0 | 0.00 | 0.02 | 0.02 | 89 | 1017.3 |
| 20260509215515 | 54 | 39 | 5.0 | 10.0 | 0.00 | 0.02 | 0.02 | 88 | 1017.3 |
| 20260509214556 | 54 | 55 | 3.0 | 7.0 | 0.00 | 0.02 | 0.02 | 88 | 1017.2 |
| 20260509213515 | 54 | 57 | 3.0 | 7.0 | 0.00 | 0.02 | 0.02 | 87 | 1017.2 |
| 20260509212515 | 54 | 53 | 4.0 | 9.0 | 0.00 | 0.02 | 0.02 | 86 | 1017.2 |
| 20260509211515 | 55 | 53 | 3.0 | 7.0 | 0.00 | 0.02 | 0.02 | 85 | 1017.2 |
| 20260509210516 | 55 | 38 | 5.0 | 11.0 | 0.00 | 0.02 | 0.02 | 84 | 1017.1 |
| 20260509205515 | 56 | 53 | 3.0 | 9.0 | 0.00 | 0.02 | 0.02 | 83 | 1017.1 |
| 20260509204535 | 56 | 37 | 4.0 | 9.0 | 0.00 | 0.02 | 0.02 | 82 | 1017.0 |
| 20260509203535 | 57 | 33 | 4.0 | 9.0 | 0.00 | 0.02 | 0.02 | 81 | 1017.0 |
| 20260509202515 | 57 | 41 | 4.0 | 10.0 | 0.00 | 0.02 | 0.02 | 80 | 1016.8 |
| 20260509201515 | 58 | 35 | 5.0 | 11.0 | 0.00 | 0.02 | 0.02 | 79 | 1016.8 |
| 20260509200536 | 58 | 42 | 6.0 | 11.0 | 0.00 | 0.02 | 0.02 | 79 | 1016.8 |
| 20260509195515 | 58 | 46 | 5.0 | 11.0 | 0.00 | 0.02 | 0.02 | 78 | 1016.7 |
| 20260509194515 | 58 | 37 | 6.0 | 13.0 | 0.00 | 0.02 | 0.02 | 79 | 1016.6 |
| 20260509193515 | 59 | 36 | 6.0 | 12.0 | 0.00 | 0.02 | 0.02 | 80 | 1016.6 |
| 20260509192535 | 59 | 32 | 6.0 | 11.0 | 0.00 | 0.02 | 0.02 | 80 | 1016.6 |
| 20260509191515 | 59 | 33 | 5.0 | 11.0 | 0.00 | 0.02 | 0.02 | 81 | 1016.7 |
| 20260509190515 | 59 | 32 | 5.0 | 9.0 | 0.00 | 0.02 | 0.02 | 80 | 1016.6 |
| 20260509185535 | 59 | 32 | 4.0 | 9.0 | 0.00 | 0.02 | 0.02 | 80 | 1016.6 |
| 20260509184515 | 60 | 31 | 5.0 | 9.0 | 0.00 | 0.02 | 0.02 | 80 | 1016.5 |
| 20260509183535 | 60 | 33 | 4.0 | 9.0 | 0.00 | 0.02 | 0.02 | 79 | 1016.4 |
| 20260509182535 | 61 | 35 | 4.0 | 9.0 | 0.00 | 0.02 | 0.02 | 77 | 1016.3 |
| 20260509181515 | 61 | 38 | 4.0 | 10.0 | 0.00 | 0.02 | 0.02 | 74 | 1016.3 |
| 20260509180515 | 61 | 75 | 3.0 | 7.0 | 0.00 | 0.02 | 0.02 | 79 | 1016.2 |
| 20260509175517 | 61 | 94 | 2.0 | 6.0 | 0.02 | 0.02 | 0.02 | 81 | 1016.2 |